SL-3 R/B (13154 NORAD) Tracking and Keplerian Element Data

This shows tracking and keplerian element data for the satellite.

Feedback or suggestion? Click here.




ElementValue
Catalog13154
NameSL-3 R/B
Epoch Orbit32182
Epoch Day35.17677574
Epoch Year2025
RAAN313.5017
Inclination81.1819
Eccentricity0.0032621
Argument of Perigee187.1259
Mean Anonmoly172.9506
Mean Motion15.06978426
Decay Rate5.846E-05
L11 13154U 82039B 25035.17677574 .00005846 00000+0 38457-3 0 9997
L22 13154 81.1819 313.5017 0032621 187.1259 172.9506 15.06978426321825



Live tracking and technical data element details for SL-3 R/B (NORAD 13154). SL-3 R/B can be tracked NOW for your location showing map with azimuth and elevation plus other details from your city location.







IsCatalogInMostPopularTable: catalog: 13154, numindb: 388
Update: records affected: 1



GetName: 13154 SL-3 R/B

Hit Count: updated at: Thu, 22 May 2025 04:06:11 GMT